TimeMDT,TemperatureF,Dew PointF,Humidity,Sea Level PressureIn,VisibilityMPH,Wind Direction,Wind SpeedMPH,Gust SpeedMPH,PrecipitationIn,Events,Conditions,WindDirDegrees,DateUTC
7:51 AM,37.4,17.6,45,30.24,10.0,West,8.1,-,N/A,,Scattered Clouds,280,2013-03-11 13:51:00
7:58 AM,37.4,17.6,45,30.26,10.0,West,8.1,-,N/A,,Scattered Clouds,280,2013-03-11 13:58:00
8:58 AM,38.8,22.5,52,30.28,10.0,West,9.2,-,N/A,,Scattered Clouds,280,2013-03-11 14:58:00
9:53 AM,48.2,30.2,50,30.26,10.0,NW,16.1,-,N/A,,Mostly Cloudy,310,2013-03-11 15:53:00
9:58 AM,48.6,30.6,50,30.26,10.0,NW,19.6,-,N/A,,Mostly Cloudy,310,2013-03-11 15:58:00
10:58 AM,50.7,35.1,55,30.26,10.0,NNW,23.0,-,N/A,,Scattered Clouds,330,2013-03-11 16:58:00
11:58 AM,52.9,34.9,50,30.25,10.0,NW,21.9,28.8,N/A,,Scattered Clouds,310,2013-03-11 17:58:00
12:13 PM,53.6,35.6,51,30.25,10.0,NW,20.7,27.6,N/A,,Mostly Cloudy,320,2013-03-11 18:13:00
12:38 PM,53.6,35.6,51,30.25,10.0,NW,23.0,27.6,N/A,,Mostly Cloudy,310,2013-03-11 18:38:00
12:58 PM,53.1,35.4,51,30.25,10.0,NW,20.7,-,N/A,,Mostly Cloudy,320,2013-03-11 18:58:00
1:28 PM,53.6,33.8,47,30.23,10.0,NW,21.9,27.6,N/A,,Mostly Cloudy,320,2013-03-11 19:28:00
1:58 PM,54.7,34.0,46,30.23,10.0,NW,20.7,27.6,N/A,,Mostly Cloudy,310,2013-03-11 19:58:00
2:08 PM,53.6,32.0,44,30.23,10.0,NW,20.7,26.5,N/A,,Overcast,320,2013-03-11 20:08:00
2:58 PM,56.7,33.8,42,30.21,10.0,NW,19.6,26.5,N/A,,Scattered Clouds,320,2013-03-11 20:58:00
3:55 PM,57.2,32.0,38,30.19,10.0,WNW,20.7,29.9,N/A,,Scattered Clouds,300,2013-03-11 21:55:00
4:58 PM,56.8,31.6,38,30.18,10.0,NW,24.2,28.8,N/A,,Mostly Cloudy,310,2013-03-11 22:58:00
5:08 PM,57.2,32.0,38,30.18,10.0,NW,24.2,29.9,N/A,,Mostly Cloudy,310,2013-03-11 23:08:00
5:18 PM,57.2,32.0,38,30.18,10.0,NW,21.9,28.8,N/A,,Scattered Clouds,310,2013-03-11 23:18:00
5:58 PM,56.3,30.7,38,30.17,10.0,NW,21.9,28.8,N/A,,Clear,320,2013-03-11 23:58:00
6:58 PM,54.1,29.8,39,30.18,10.0,NNW,16.1,-,N/A,,Scattered Clouds,330,2013-03-12 00:58:00
7:43 PM,51.8,32.0,47,30.20,10.0,NW,10.4,-,N/A,,Mostly Cloudy,320,2013-03-12 01:43:00
7:58 PM,52.0,30.4,44,30.22,10.0,NW,8.1,-,N/A,,Mostly Cloudy,320,2013-03-12 01:58:00
8:58 PM,48.7,30.2,49,30.23,10.0,West,6.9,-,N/A,,Overcast,270,2013-03-12 02:58:00
9:58 PM,47.1,29.5,50,30.23,10.0,NW,8.1,-,N/A,,Overcast,310,2013-03-12 03:58:00
10:08 PM,46.4,28.4,50,30.22,10.0,NW,10.4,-,N/A,,Mostly Cloudy,320,2013-03-12 04:08:00
10:58 PM,41.9,27.7,57,30.25,10.0,NNW,5.8,-,N/A,,Clear,330,2013-03-12 04:58:00
11:58 PM,38.1,26.8,64,30.26,10.0,NW,5.8,-,N/A,,Clear,320,2013-03-12 05:58:00